GW5324 Weather Reports


Display with metric or nautical units.
time (UTC)temp
F
wind
direction
speed
MPH
gust
MPH
rain 1hr
in
rain 24hr
in
rain mn
in
humidity
%
barometer
mb
20260506034504 62 109 1.0 3.0 0.00 0.00 0.00 70 1016.0
20260506033027 0 0.0 0.0 0.00 0.00 0.00 1015.8
20260506031514 63 66 4.0 5.0 0.00 0.00 0.00 69 1015.7
20260506030028 63 0.0 0.0 0.00 0.00 0.00 1015.9
20260506024530 64 11 2.0 5.0 0.00 0.00 0.00 65 1015.5
20260506023027 64 0.0 0.0 0.00 0.00 0.00 65 1015.5
20260506021524 0 352 2.0 0.0 0.00 0.00 0.00 1015.4
20260506020027 0 0.0 0.0 0.00 0.00 0.00 1015.4
20260506014531 64 344 1.0 4.0 0.00 0.00 0.00 66 1015.5
20260506013030 0 0.0 0.0 0.00 0.00 0.00 1015.5
20260506011529 64 17 2.0 4.0 0.00 0.00 0.00 66 1015.5
20260506010026 63 0.0 0.0 0.00 0.00 0.00 1015.5
20260506004529 63 336 4.0 5.0 0.00 0.00 0.00 66 1015.6
20260506003030 0 0.0 0.0 0.00 0.00 0.00 1015.6
20260506001527 63 340 2.0 5.0 0.00 0.00 0.00 68 1015.7
20260506000028 0 0.0 0.0 0.00 0.00 0.00 1015.8
20260505234530 63 319 4.0 6.0 0.00 0.00 0.00 69 1015.9
20260505233014 0 256 2.0 0.0 0.00 0.00 0.00 69 1016.1
20260505231541 63 2.0 5.0 0.00 0.00 0.00 67 1016.1
20260505230028 0 323 3.0 0.0 0.00 0.00 0.00 69 1016.2
20260505224530 63 3.0 6.0 0.00 0.00 0.00 69 1016.1
20260505223034 63 316 4.0 0.0 0.00 0.00 0.00 68 1016.3
20260505221529 63 3.0 8.0 0.00 0.00 0.00 68 1016.3
20260505220037 63 315 4.0 5.0 0.00 0.00 0.00 68 1016.3
20260505214535 63 3.0 6.0 0.00 0.00 0.00 66 1016.6
20260505213026 63 341 1.0 7.0 0.00 0.00 0.00 66 1016.5
20260505211530 0 0.0 0.0 0.00 0.00 0.00 1016.5
20260505210002 64 269 2.0 4.0 0.00 0.00 0.00 67 1016.6
20260505204533 0 0.0 0.0 0.00 0.00 0.00 1016.8
20260505203031 63 317 1.0 3.0 0.00 0.00 0.00 67 1016.8
20260505201531 0 0.0 0.0 0.00 0.00 0.00 1017.0
20260505200037 61 1.0 3.0 0.00 0.00 0.00 70 1017.0
20260505194509 61 66 3.0 0.0 0.00 0.00 0.00 71 1017.1
20260505193030 60 2.0 3.0 0.00 0.00 0.00 73 1017.0
20260505191512 60 9 1.0 4.0 0.00 0.00 0.00 73 1017.2
20260505190034 59 1.0 2.0 0.00 0.00 0.00 1017.1
20260505184530 0 0.0 0.0 0.00 0.00 0.00 1017.1
20260505183032 0 0.0 0.0 0.00 0.00 0.00 1017.1
20260505181529 0 0.0 0.0 0.00 0.00 0.00 1017.1
20260505180027 59 252 2.0 6.0 0.00 0.00 0.00 73 1017.1
20260505174539 0 0.0 0.0 0.00 0.00 0.00 1016.9
20260505173030 0 0.0 0.0 0.00 0.00 0.00 1016.8
20260505171529 0 0.0 0.0 0.00 0.00 0.00 1016.8
20260505170030 0 0.0 0.0 0.00 0.00 0.00 1016.7
20260505164528 57 0.0 0.0 0.00 0.00 0.00 1016.6
20260505163021 57 232 1.0 4.0 0.00 0.00 0.00 77 1016.7
20260505161533 0 0.0 0.0 0.00 0.00 0.00 77 1016.5
20260505153029 0 0.0 0.0 0.00 0.00 0.00 1016.5
20260505151529 56 219 3.0 7.0 0.00 0.00 0.00 81 1016.4
20260505124535 55 199 4.0 6.0 0.00 0.00 0.00 80 1015.4
20260505123030 55 190 0.0 2.0 0.00 0.00 0.00 80 1015.4
20260505121531 55 190 2.0 4.0 0.00 0.00 0.00 80 1015.4
20260505120030 55 179 3.0 4.0 0.00 0.00 0.00 79 1015.3
20260505114529 55 192 2.0 4.0 0.00 0.00 0.00 79 1015.3
20260505113026 56 234 2.0 4.0 0.00 0.00 0.00 79 1015.1
20260505111522 56 304 1.0 2.0 0.00 0.00 0.00 79 1015.2
20260505101512 55 194 3.0 5.0 0.00 0.00 0.00 80 1014.7
20260505100004 55 329 0.0 2.0 0.00 0.00 0.00 82 1014.7
20260505094504 55 329 0.0 2.0 0.00 0.00 0.00 82 1014.6
20260505093006 56 330 0.0 2.0 0.00 0.00 0.00 81 1014.6
20260505091528 56 329 0.0 2.0 0.00 0.00 0.00 81 1014.6
20260505090036 56 329 0.0 2.0 0.00 0.00 0.00 81 1014.3
20260505084505 56 330 0.0 2.0 0.00 0.00 0.00 81 1014.2
20260505083013 56 329 2.0 4.0 0.00 0.00 0.00 80 1014.3
20260505081509 56 310 3.0 4.0 0.00 0.00 0.00 80 1014.1
20260505080016 57 315 3.0 5.0 0.00 0.00 0.00 79 1014.1
20260505074529 57 316 2.0 6.0 0.00 0.00 0.00 78 1014.1
20260505073009 58 340 3.0 4.0 0.00 0.00 0.00 77 1013.6
20260505071544 59 309 0.0 5.0 0.00 0.00 0.00 75 1013.4
20260505070016 60 178 2.0 5.0 0.00 0.00 0.00 74 1013.4
20260505064524 60 315 1.0 2.0 0.00 0.00 0.00 73 1013.1
20260505063028 61 315 1.0 2.0 0.00 0.00 0.00 72 1013.0
20260505061510 61 321 1.0 5.0 0.00 0.00 0.00 70 1012.7
20260505060012 62 315 2.0 3.0 0.00 0.00 0.00 69 1012.5
20260505054517 63 320 4.0 5.0 0.00 0.00 0.00 67 1012.3
20260505053029 64 281 1.0 4.0 0.00 0.00 0.00 66 1012.2
20260505051507 65 298 1.0 4.0 0.00 0.00 0.00 66 1012.2
20260505041521 69 319 3.0 7.0 0.00 0.00 0.00 64 1011.3
20260505040007 69 271 2.0 9.0 0.00 0.00 0.00 66 1011.0